Wind_Speed
31 32 34 32 30 31 31 30 29 28 27 25 24 24 22 22 21 19 17 15 15 15 17 18 19 20 18 15 13 12 12 11 12 8 11 22 26 20 15 11 13 21 15 18 26 23 17 12 13 16 12 6 1 3 6 4 2 2 2 2 3 3 3 3 3 3 3 3 5 7 8 8 6 3 2 2 4 7 6 2 5 5 6 12 18 27 30 30
31 33 34 33 32 33 32 31 29 29 28 26 25 24 24 23 21 19 18 16 15 15 16 18 19 19 17 15 12 10 10 11 11 13 21 25 23 19 18 19 16 22 21 25 32 26 18 10 12 13 7 3 2 3 6 4 3 3 2 2 4 4 3 4 3 2 1 4 7 7 7 7 8 6 3 3 5 7 6 4 6 8 10 14 22 28 28 29
31 33 34 34 34 34 33 32 31 30 29 28 27 26 25 24 22 21 19 18 16 15 16 17 18 17 15 13 11 9 9 8 7 12 13 13 15 23 18 16 18 25 25 29 37 32 26 22 19 14 6 3 2 4 6 4 3 3 2 2 6 5 5 6 5 5 1 6 9 7 5 5 7 6 3 5 7 7 7 6 8 9 12 15 18 24 26 27
32 34 34 34 35 34 34 33 32 31 30 30 28 26 25 24 24 22 21 20 17 15 15 16 16 15 13 11 9 8 6 3 4 6 3 14 10 12 19 17 18 27 24 24 31 26 25 26 19 11 5 4 3 4 5 5 4 3 4 4 4 3 5 6 6 6 1 7 8 7 5 5 7 6 5 9 8 5 8 10 11 13 16 18 18 21 25 24
34 34 35 35 35 34 34 33 32 31 31 30 27 26 26 25 24 23 21 19 16 15 14 14 13 12 10 9 7 6 4 1 2 4 5 13 17 5 16 22 21 27 25 20 22 18 19 20 13 7 4 3 5 4 5 8 5 3 6 7 6 2 3 5 4 5 2 6 6 7 7 6 6 5 7 12 10 6 7 10 11 13 17 20 20 20 22 21
35 36 36 36 35 35 34 33 33 32 30 29 27 26 26 26 25 22 20 17 15 14 13 12 9 8 7 5 5 3 2 1 4 10 13 15 14 10 8 24 24 26 27 20 19 18 17 14 9 7 3 3 7 7 5 9 7 4 6 7 9 6 7 7 4 5 1 6 6 8 7 7 8 5 8 13 10 3 5 9 12 13 16 20 21 19 19 19
37 37 37 37 36 35 34 33 33 32 30 28 25 25 26 26 24 21 19 15 14 13 12 10 7 5 4 3 2 4 3 6 9 15 16 12 6 5 6 24 28 28 28 20 15 15 14 13 10 7 5 4 6 7 3 7 9 6 6 7 8 7 11 9 6 8 4 5 6 6 7 9 11 7 7 12 7 5 9 12 13 14 17 20 19 17 18 18
38 38 38 39 37 36 35 34 33 31 30 26 24 24 25 24 22 20 17 13 13 13 11 8 5 3 3 2 1 3 2 8 8 18 20 13 3 4 13 24 30 31 30 24 17 15 14 14 12 7 6 5 5 7 4 6 8 9 11 8 5 6 8 7 6 8 7 5 4 7 9 11 12 8 8 12 7 7 12 14 14 15 16 17 17 18 17 16
40 39 39 39 38 36 35 34 33 31 28 25 22 22 23 23 21 19 15 14 14 11 10 6 3 2 2 1 3 3 5 6 3 19 25 18 6 9 20 25 31 31 28 25 18 15 13 12 12 8 7 7 5 7 6 5 5 11 13 7 5 7 6 6 7 7 7 5 5 7 8 9 8 6 6 10 8 9 14 15 15 16 16 16 16 18 17 16
41 40 39 39 39 37 35 34 33 30 27 24 21 21 21 20 20 18 15 15 13 9 8 5 2 2 2 1 3 2 5 8 4 14 24 19 7 10 20 25 34 32 24 22 18 16 12 11 13 7 5 5 5 6 8 7 4 7 8 6 9 11 8 7 8 7 6 4 7 9 8 7 7 4 4 7 10 13 15 15 16 16 16 16 15 15 16 16
42 40 40 39 39 37 35 34 32 29 26 23 20 19 19 18 18 18 16 14 10 8 7 4 2 0 2 3 3 3 4 6 6 15 23 17 5 8 16 25 35 33 24 17 18 20 13 12 13 5 2 4 5 4 5 7 5 4 4 6 11 9 9 9 9 8 4 4 7 9 6 4 6 6 6 7 13 15 16 16 16 17 15 16 16 15 13 14
42 41 40 39 39 37 35 33 31 27 25 23 19 18 19 17 17 19 16 10 8 9 7 4 3 2 2 3 5 8 5 7 13 19 22 15 7 7 12 24 32 30 27 18 18 25 17 16 17 7 4 4 5 3 4 7 6 5 4 6 9 6 8 10 8 7 5 5 6 7 2 3 8 10 7 10 15 16 16 16 16 16 14 14 15 13 11 13
43 42 39 39 38 36 34 31 29 26 24 22 18 19 20 16 17 18 11 8 9 10 7 6 3 4 3 1 7 9 13 14 14 15 19 12 5 6 8 20 26 21 21 13 13 23 18 19 19 9 5 5 4 3 2 5 5 5 5 5 7 5 7 8 6 7 6 6 7 8 3 4 9 11 7 12 15 16 15 15 15 14 12 13 13 12 12 13
43 42 40 38 37 35 32 29 27 25 24 21 18 20 19 15 16 13 7 9 12 11 8 7 2 5 2 5 8 11 16 10 8 15 19 16 5 4 5 16 23 15 11 3 1 12 14 13 13 5 1 3 2 2 4 1 1 3 4 4 3 1 5 5 4 7 6 4 9 10 5 6 8 8 9 13 17 17 15 15 14 13 12 12 13 13 13 14
44 43 41 37 36 34 31 28 25 25 24 20 20 21 16 14 13 8 7 11 14 11 8 4 4 3 2 6 9 14 12 7 14 21 16 14 11 2 6 14 21 15 9 2 3 8 12 7 5 3 3 1 1 3 4 3 2 1 4 3 3 4 6 6 3 8 8 3 9 11 5 5 6 6 11 13 16 18 16 15 15 14 14 14 13 13 13 13
46 45 41 37 36 33 30 27 24 26 24 20 20 17 13 13 10 5 7 14 15 9 4 3 5 2 1 4 11 13 8 11 21 23 18 16 13 8 6 13 18 15 10 2 2 8 12 5 2 3 2 1 3 1 1 3 4 2 3 4 3 5 6 6 3 7 10 4 7 11 5 3 5 7 11 13 17 17 15 15 16 15 15 15 13 13 13 12
47 46 42 38 36 33 29 26 24 26 24 22 20 12 11 12 6 4 7 16 14 3 1 2 4 2 1 6 13 11 11 19 24 24 24 20 14 13 7 8 10 11 8 1 1 5 8 4 1 2 2 3 3 4 2 5 5 3 2 4 3 5 6 4 4 6 8 6 7 11 9 5 4 8 13 14 16 16 14 16 16 15 14 14 13 13 13 13
48 47 44 38 35 32 28 24 23 25 24 24 17 9 14 11 2 3 8 16 10 1 1 1 2 2 2 10 13 12 19 25 27 25 21 15 10 9 11 7 6 10 7 1 1 3 4 3 2 2 2 4 4 6 7 6 6 5 4 4 3 3 5 5 3 3 6 7 8 10 11 10 3 7 13 15 16 16 15 16 15 15 15 14 13 13 14 14
48 48 44 39 34 29 26 22 22 24 24 25 14 4 13 11 1 1 9 15 6 2 2 3 3 3 4 12 13 18 24 23 19 15 11 10 10 1 9 6 8 11 7 3 3 4 4 2 3 5 6 9 10 11 9 3 4 7 5 4 4 4 5 5 4 4 5 5 7 9 11 12 6 8 12 13 15 16 14 13 12 13 14 13 13 13 14 16
48 48 45 39 32 27 25 20 21 23 21 26 18 3 8 10 2 2 8 10 2 4 3 4 1 1 6 10 13 22 24 13 6 6 9 10 5 3 4 3 6 6 6 7 5 4 6 4 6 11 12 13 12 10 7 3 2 4 4 4 5 5 5 5 4 3 5 4 6 9 11 13 9 9 13 13 14 13 12 13 13 13 13 13 15 15 16 17
48 49 46 39 31 24 23 18 18 23 18 22 22 8 3 6 3 4 6 6 4 4 5 7 4 5 9 12 15 18 12 6 5 6 11 10 2 3 1 3 5 4 5 8 5 3 6 7 12 15 11 8 7 7 7 6 7 3 2 3 4 5 5 5 4 2 3 3 5 7 9 13 10 9 11 13 14 14 15 16 15 16 16 14 16 17 17 14
49 50 45 40 30 22 21 16 16 21 16 17 20 10 3 4 4 5 3 5 7 3 4 7 4 5 10 15 14 9 2 4 8 7 12 11 2 4 2 4 6 5 5 7 6 4 6 10 15 12 7 6 6 7 9 9 9 7 4 3 3 4 3 5 5 1 2 3 4 5 7 11 10 8 11 14 15 15 17 19 18 19 18 15 16 17 16 13
49 49 45 39 28 20 19 14 14 20 17 13 12 8 3 6 7 3 1 2 6 4 2 3 2 3 8 10 8 6 3 2 4 9 13 9 2 1 3 5 6 5 7 9 8 7 7 10 13 9 7 8 8 7 9 8 8 7 6 5 4 4 2 4 4 1 1 4 4 4 5 7 7 5 9 15 17 16 16 18 18 18 19 20 20 18 17 17
48 49 45 37 27 20 16 10 13 21 17 8 6 7 5 10 9 1 0 1 3 5 3 2 1 1 6 10 9 7 3 2 2 8 11 6 4 4 2 5 7 6 7 10 11 10 7 7 7 10 8 9 9 8 9 7 6 8 8 8 6 5 5 4 3 3 3 3 2 4 2 5 4 5 7 11 13 14 14 15 14 14 17 17 17 15 16 18
48 48 44 36 25 19 14 7 12 21 17 6 5 9 12 16 10 2 1 3 2 5 3 2 1 2 9 12 12 7 2 2 3 5 7 4 4 4 3 3 6 8 8 10 9 9 9 6 7 13 12 12 11 10 10 8 5 6 10 11 8 6 5 3 3 4 4 4 3 3 3 6 4 6 9 8 10 12 11 13 15 15 15 14 12 13 15 17
47 47 44 34 23 19 12 4 12 21 12 5 13 20 21 20 10 3 2 4 2 3 2 4 3 5 12 11 12 8 0 3 6 7 8 8 4 3 2 3 3 6 7 7 5 5 7 7 7 12 15 14 12 10 9 10 6 6 8 9 8 7 5 3 1 1 1 4 4 2 4 5 5 5 9 9 12 15 13 14 18 16 14 14 14 15 15 15
46 46 42 32 22 19 10 4 15 16 5 10 25 29 27 21 6 5 2 4 3 2 2 4 4 7 12 11 12 7 1 7 10 5 10 14 7 3 4 3 2 4 4 5 4 3 7 9 8 10 12 12 11 10 10 11 8 6 5 9 8 7 7 5 3 4 3 4 5 2 4 3 4 5 7 9 12 15 15 16 18 16 15 16 16 16 17 17
45 45 39 28 20 18 13 11 15 11 11 22 28 29 27 14 3 6 4 2 2 2 1 2 5 7 9 10 11 6 1 7 7 5 14 18 8 3 3 4 3 5 3 6 6 3 8 12 11 10 9 9 11 11 12 13 9 5 7 11 9 9 8 6 4 5 2 3 6 4 4 3 5 5 5 6 11 14 16 18 18 17 17 18 18 17 17 18
44 44 34 22 18 18 18 15 12 14 25 29 26 29 22 3 7 4 4 1 0 2 1 2 6 7 7 6 7 7 4 5 4 8 14 14 8 4 3 4 3 7 8 7 7 3 5 9 11 11 9 7 9 10 11 13 10 4 7 9 8 8 7 6 6 4 2 4 10 7 4 4 6 5 4 4 8 12 13 15 16 17 19 19 18 18 18 16
43 41 30 17 15 19 21 18 19 25 29 26 26 26 10 6 4 4 1 2 1 2 1 3 5 5 7 5 6 8 6 4 6 8 7 6 11 10 1 1 2 3 7 6 6 5 5 4 9 10 9 6 6 7 9 13 11 5 6 5 4 4 4 4 4 3 3 8 11 9 7 5 6 5 6 6 6 8 9 11 13 15 17 18 17 17 17 16
41 39 25 12 14 20 18 16 26 32 26 24 26 18 4 3 4 4 2 1 2 1 2 4 5 5 9 7 6 9 6 5 9 10 8 6 10 13 7 5 6 2 3 5 4 5 6 6 5 6 8 8 6 5 7 11 11 7 5 5 2 1 1 2 1 3 7 10 8 8 7 7 9 7 6 7 7 10 11 12 14 16 17 17 17 17 17 16
40 36 21 9 13 19 16 16 28 32 25 23 20 8 4 1 2 2 2 1 1 2 2 3 5 5 7 6 6 9 6 5 9 9 8 6 6 10 8 5 4 2 3 4 3 3 6 8 5 3 7 10 8 5 5 7 9 8 5 6 5 2 1 4 3 3 7 7 4 7 7 7 10 9 7 9 9 12 13 13 15 17 19 19 19 18 16 15
39 35 19 7 11 18 22 26 30 28 24 20 12 4 6 2 1 1 2 1 1 1 1 2 4 4 6 5 5 8 5 4 9 10 7 5 3 6 7 7 6 2 2 2 3 2 4 6 8 7 5 9 11 9 6 6 8 9 7 7 6 5 4 6 5 3 5 5 3 6 6 4 5 6 11 13 12 12 12 13 15 17 19 20 20 19 17 16
37 34 17 6 12 20 27 31 29 25 20 14 7 4 5 2 2 0 1 2 2 1 1 1 2 4 6 4 4 6 4 3 9 9 6 5 3 2 4 8 11 6 0 1 2 1 4 5 8 8 4 5 11 11 8 6 7 9 8 7 6 6 5 5 4 4 4 4 5 4 5 5 4 4 9 13 14 14 12 14 15 15 16 17 16 16 16 16
36 30 12 7 17 24 30 32 28 21 12 6 5 4 3 2 2 0 1 3 1 2 3 2 3 3 4 3 3 4 2 2 8 8 5 4 3 3 3 6 10 9 3 0 2 2 3 4 3 3 7 4 8 10 8 8 6 7 7 7 8 5 4 3 4 4 3 3 6 4 4 4 4 5 6 5 11 14 15 15 14 15 14 11 10 13 15 15
35 26 9 12 26 30 32 33 26 15 4 4 5 2 2 3 2 2 2 1 0 1 2 4 4 3 2 3 3 4 2 1 6 6 3 4 4 5 4 4 8 9 6 2 1 2 2 5 7 11 13 7 5 6 9 11 6 4 7 9 6 5 5 3 4 1 3 5 6 3 4 4 2 7 5 3 7 10 13 14 14 15 13 10 11 13 15 15
33 22 7 16 32 33 33 32 21 8 1 5 3 2 3 2 2 2 0 1 1 2 3 2 2 2 2 2 2 5 4 2 5 5 3 3 3 4 4 4 8 9 7 4 1 1 2 6 9 8 9 8 8 8 8 12 8 4 7 8 5 6 4 5 4 2 3 7 5 2 6 5 4 6 4 5 7 8 11 12 13 14 10 11 13 14 16 17
26 16 4 16 32 33 32 25 10 0 4 5 1 2 0 1 0 0 1 1 1 3 4 2 0 1 1 1 2 4 3 2 3 3 3 3 2 5 4 3 6 8 9 6 1 1 1 4 7 3 4 9 10 7 6 9 10 7 6 8 7 5 7 6 5 6 6 5 4 3 4 5 6 6 4 8 10 9 10 11 12 13 11 12 13 14 16 17
16 7 1 16 33 33 27 15 4 4 5 4 1 1 1 1 2 2 1 1 2 3 3 2 1 1 1 0 1 3 2 1 2 2 2 2 1 4 6 3 4 7 9 8 2 2 0 0 4 3 3 9 7 2 4 7 11 9 5 7 7 5 6 6 4 3 4 4 4 3 2 4 6 6 8 11 12 11 11 10 11 13 12 12 13 13 14 15
9 2 1 20 35 32 20 11 8 5 4 3 0 1 2 2 2 4 3 2 2 2 2 2 1 1 0 1 1 1 2 1 0 1 0 1 2 2 6 5 5 7 9 9 4 2 1 1 3 6 7 6 4 3 4 4 5 6 5 6 7 4 2 4 3 2 4 4 3 3 3 5 5 5 9 12 12 12 13 12 12 12 12 13 13 13 13 14
5 2 4 24 36 28 14 10 7 5 3 2 2 2 4 4 3 5 5 3 3 2 2 3 2 2 2 0 1 1 2 2 1 1 2 1 1 1 5 7 6 7 7 6 3 1 0 1 2 5 6 3 6 6 4 2 2 3 4 5 8 5 3 5 5 3 4 4 4 3 4 6 5 4 8 11 11 12 13 13 12 12 13 14 13 14 14 15
3 2 5 26 36 22 8 7 4 3 3 3 4 3 5 6 4 5 5 4 3 1 2 2 1 1 2 0 1 0 2 2 2 2 2 1 1 0 4 7 6 6 6 4 4 4 2 1 1 5 5 7 16 18 13 9 6 5 5 4 5 4 5 6 7 4 3 3 3 2 4 7 6 6 8 9 10 11 12 13 12 11 12 13 14 15 15 15
3 2 5 23 31 14 6 5 4 4 3 4 5 4 5 4 4 5 5 5 3 1 1 1 1 1 1 1 1 0 1 1 2 2 1 2 2 1 3 5 5 6 5 3 4 5 3 1 1 4 5 7 14 14 8 5 3 2 3 3 3 3 4 6 5 4 4 4 3 4 8 8 5 5 7 8 8 7 7 10 11 11 10 10 13 14 13 14
3 3 3 18 28 16 8 3 3 3 4 6 6 5 5 3 4 5 4 5 4 2 1 1 0 1 1 1 1 1 1 0 1 2 1 2 1 0 2 4 5 5 4 4 4 4 3 1 1 2 2 4 7 5 1 3 4 2 4 5 4 6 6 3 2 3 3 7 8 6 8 8 3 1 2 4 5 4 4 6 8 9 8 9 10 11 12 14
4 1 3 9 21 17 7 2 3 2 5 7 5 6 6 4 3 5 4 3 4 3 1 1 2 2 2 3 2 1 1 2 2 2 1 1 2 1 1 2 5 6 6 9 9 5 3 2 1 2 3 4 5 3 2 2 5 4 6 8 7 7 7 5 2 3 5 7 8 7 9 8 1 2 1 0 3 5 5 5 5 7 8 7 8 10 11 12
2 2 2 4 8 8 3 2 3 2 3 6 4 4 6 6 4 5 4 4 6 6 2 2 4 3 4 6 4 3 3 2 3 2 2 3 2 2 2 2 4 8 10 11 10 5 3 3 3 4 5 5 4 3 3 3 5 7 10 13 12 8 6 4 3 5 6 4 5 7 10 8 6 4 4 4 5 6 6 6 5 7 9 8 8 10 11 12
1 1 2 3 2 3 3 3 4 3 2 3 2 3 6 6 5 5 4 4 6 7 3 1 4 4 3 5 3 3 4 2 3 3 4 5 3 2 3 4 5 8 8 8 8 4 2 3 4 6 7 9 8 9 8 6 7 10 11 13 14 12 8 5 6 6 3 5 7 8 5 7 12 9 4 4 7 7 6 8 8 8 10 10 10 11 13 14
1 1 0 1 1 2 2 3 4 4 4 3 1 3 6 7 6 5 4 3 4 5 3 1 3 4 3 3 2 3 4 3 3 3 4 3 3 3 3 3 4 4 3 4 7 4 2 3 3 4 7 10 10 11 12 9 9 10 10 12 15 14 11 9 9 8 4 6 9 6 5 9 11 6 4 2 5 7 8 9 8 8 9 11 11 12 14 16
2 1 0 1 1 1 1 4 4 4 5 4 2 3 5 6 6 5 3 4 4 3 3 2 5 7 6 4 2 2 3 3 4 4 2 3 4 3 3 2 2 1 1 3 5 3 2 4 4 4 6 10 11 12 12 9 7 8 9 10 11 13 13 11 11 10 10 10 8 6 9 10 4 5 7 6 5 5 6 5 6 8 10 11 13 14 15 16
1 0 1 1 1 2 3 2 2 2 3 3 1 2 4 6 6 6 4 4 4 2 3 5 8 9 9 7 3 4 6 5 6 6 3 5 5 3 3 3 2 1 1 0 3 3 3 3 2 1 3 8 9 8 7 7 7 7 6 6 9 11 8 6 7 6 6 8 9 8 10 8 4 6 6 6 5 4 5 8 8 8 9 11 13 14 14 15
1 2 1 1 2 2 1 1 0 1 3 1 0 3 5 5 6 8 7 4 4 3 4 7 10 9 8 7 5 8 9 7 8 9 8 8 8 6 4 3 4 3 3 2 1 3 3 3 3 2 1 5 5 4 4 6 6 6 2 8 12 11 8 3 1 4 3 4 5 6 6 5 6 8 6 6 8 10 11 12 11 10 10 9 11 11 13 15
2 2 1 1 2 2 1 0 0 1 2 2 3 5 4 4 6 7 6 2 2 3 4 6 8 7 6 7 8 8 8 7 10 12 10 11 12 10 8 8 7 6 4 3 3 3 4 3 2 1 1 4 5 4 7 5 4 4 1 6 8 8 8 6 6 10 8 3 2 2 4 5 7 7 7 9 11 12 11 10 10 11 13 10 8 9 10 12
Wind_Direction
6 6 5 3 359 357 357 356 354 352 350 348 350 353 354 354 353 352 351 348 343 337 334 331 330 332 329 323 319 317 316 307 299 285 246 256 260 247 234 238 193 172 158 151 152 142 140 141 144 152 149 147 155 157 183 224 217 179 188 227 240 221 228 215 207 194 148 160 171 177 167 141 140 143 164 120 78 125 149 102 98 62 71 114 126 137 145 148
4 5 5 2 358 358 357 354 353 351 350 350 353 354 354 354 352 351 349 346 343 336 331 328 326 328 329 326 321 318 318 308 294 266 259 267 269 261 238 233 208 170 157 159 161 150 146 153 147 146 139 154 191 159 172 190 190 210 191 206 236 210 221 244 247 244 162 170 170 176 174 151 149 151 170 145 125 147 144 113 102 88 96 114 128 139 148 151
3 4 3 1 0 359 358 355 354 351 351 352 354 355 353 352 352 350 347 344 341 337 330 325 324 324 328 326 322 323 316 314 297 260 281 317 275 253 237 221 202 177 169 171 170 164 160 159 151 143 134 159 181 167 173 178 174 215 212 218 241 231 258 279 268 269 299 152 159 170 179 155 150 147 163 145 141 169 165 151 137 129 134 134 138 145 151 155
4 4 3 2 1 360 358 357 355 353 353 353 354 354 352 351 351 349 346 343 339 336 329 325 324 322 329 329 325 330 324 315 296 261 325 9 341 239 216 204 185 179 178 173 174 171 159 152 146 140 134 152 177 174 181 193 166 174 204 217 248 227 246 272 272 271 218 142 156 160 164 157 150 148 157 140 138 197 200 182 167 155 150 145 149 153 156 159
6 5 4 3 1 360 358 357 355 354 353 353 353 352 350 350 349 348 346 342 337 333 328 325 323 323 331 335 337 337 347 28 299 329 348 340 345 333 204 194 178 178 175 164 166 160 147 145 140 135 131 141 163 180 201 202 182 198 223 233 257 271 258 274 289 272 142 126 141 149 167 156 142 156 162 155 165 208 203 184 165 154 153 152 155 157 159 163
7 5 4 2 0 359 357 356 355 354 353 352 353 350 350 349 348 347 344 341 336 333 330 328 324 325 330 339 355 2 23 257 319 350 339 318 323 341 202 188 180 177 174 164 153 144 141 144 147 148 145 141 172 192 199 194 199 233 241 240 244 252 261 270 297 294 73 124 156 165 172 141 141 176 177 176 185 175 144 153 147 149 153 152 154 159 163 166
6 5 3 1 360 359 357 355 353 352 352 353 353 350 349 349 348 345 343 342 339 334 329 330 328 325 338 352 9 50 79 261 310 357 348 326 301 321 183 183 182 177 175 168 151 145 145 153 162 152 149 155 190 211 192 183 204 238 253 248 240 238 250 261 284 288 273 184 180 160 156 157 168 172 177 192 193 127 126 137 140 144 150 152 157 164 169 169
4 3 2 360 359 357 356 355 353 352 351 353 353 351 349 348 348 345 346 347 344 338 330 335 339 340 9 29 42 11 315 251 316 12 12 8 8 182 165 173 180 176 172 173 168 157 149 157 169 152 164 185 191 201 186 175 200 229 239 245 247 243 256 272 279 274 260 223 164 150 170 184 183 154 172 197 183 137 132 132 139 143 151 159 164 167 171 171
4 2 1 359 358 357 356 355 354 352 351 355 354 351 349 347 347 348 353 351 347 342 340 351 352 37 76 60 63 331 269 198 58 24 19 15 22 165 165 169 178 173 168 176 175 160 154 164 176 161 166 189 180 184 185 183 200 220 230 247 268 263 272 282 275 266 257 227 151 168 198 200 184 140 178 195 162 141 135 135 144 149 158 165 169 171 172 173
4 2 360 358 357 356 356 355 354 353 354 357 355 350 349 347 345 350 357 351 348 352 2 17 341 40 102 96 79 325 256 183 167 11 11 8 21 163 172 174 176 171 165 176 178 173 171 171 175 151 134 176 187 185 182 193 220 219 227 259 259 265 273 267 269 264 260 236 174 186 212 202 187 175 208 185 150 142 137 143 151 154 165 168 172 175 174 176
4 2 359 357 356 356 356 355 355 355 357 357 354 351 351 346 342 347 353 350 356 17 23 21 348 169 155 109 131 237 236 192 251 334 347 343 339 188 189 180 177 172 164 169 186 190 180 165 161 130 125 180 182 197 202 212 254 257 251 275 258 264 268 254 259 253 241 241 198 188 207 173 175 216 220 166 149 147 145 151 159 162 168 170 172 175 176 180
3 1 359 356 355 355 355 355 355 357 358 357 355 352 349 342 338 344 349 359 23 28 24 17 11 176 161 118 199 243 279 293 300 325 337 326 284 236 206 187 180 176 169 167 192 195 183 164 160 161 197 160 147 184 243 227 239 269 274 284 275 289 277 254 247 237 206 222 194 158 205 171 182 217 203 156 151 151 151 157 164 167 169 170 172 175 180 181
3 1 359 356 354 354 355 355 355 359 358 356 356 350 344 334 334 344 359 30 32 20 21 16 358 166 123 220 245 286 318 315 315 344 0 354 276 230 216 193 186 182 177 172 193 197 187 172 170 181 186 138 156 198 265 218 208 243 242 256 277 314 288 258 223 212 202 212 167 145 227 218 202 216 178 151 154 150 154 164 168 170 170 170 174 177 182 182
2 2 359 356 354 354 356 356 356 359 357 355 355 346 337 329 337 355 32 36 21 13 9 15 51 148 117 269 277 333 338 332 351 0 5 8 355 210 200 189 187 188 186 156 190 197 191 183 178 191 219 147 198 312 352 356 173 207 200 223 245 261 277 265 184 185 201 210 160 163 232 231 215 215 172 157 158 155 161 170 170 171 172 172 177 180 183 186
2 2 359 356 354 354 357 357 356 357 354 354 350 342 333 331 346 17 52 23 9 2 358 46 126 124 32 275 300 343 348 345 343 341 338 347 353 271 190 182 186 192 190 121 37 183 186 188 172 193 271 240 235 334 351 348 333 184 167 215 210 188 257 274 203 179 195 222 165 173 228 237 227 206 173 165 162 163 166 172 173 174 176 176 180 183 185 188
2 1 359 356 354 354 357 357 357 356 356 354 344 341 339 338 358 48 48 14 358 353 2 106 135 114 69 297 323 341 347 329 328 330 319 316 318 285 221 179 183 189 192 202 21 167 172 179 177 199 247 237 191 164 355 323 315 298 187 217 185 173 239 272 269 209 194 186 174 188 209 226 225 187 171 171 169 169 168 173 177 177 178 179 181 185 185 187
2 1 359 356 355 354 357 358 357 357 360 356 344 354 359 341 360 74 37 6 350 346 69 139 141 139 211 328 340 337 322 320 322 320 314 314 303 270 222 163 172 174 169 198 347 143 157 178 208 206 202 198 173 135 194 243 243 270 210 215 205 180 219 241 282 256 194 170 185 204 217 228 219 173 170 176 173 171 173 176 179 179 181 182 183 186 187 188
2 1 359 356 354 353 357 359 358 0 5 2 354 21 17 349 328 87 17 356 337 235 102 205 129 98 297 328 332 309 303 312 317 313 310 333 341 260 205 154 127 136 125 91 253 136 156 182 170 209 215 201 193 168 199 216 196 211 195 193 218 205 223 212 230 256 180 181 193 198 221 234 215 165 175 179 175 176 181 180 179 180 182 183 184 188 190 191
1 1 359 356 353 352 356 359 1 3 8 12 13 37 20 8 244 80 3 356 359 109 347 311 47 77 276 306 303 297 306 312 316 313 310 345 10 228 191 153 117 129 127 153 195 167 159 146 161 205 216 202 206 199 200 194 147 174 179 173 180 207 243 226 228 234 164 181 209 198 217 226 201 179 185 180 179 183 182 178 178 183 183 184 188 192 192 195
1 1 358 355 352 351 355 359 4 6 10 20 25 30 14 14 349 341 356 355 46 147 273 272 59 178 276 295 297 311 323 330 331 328 329 334 14 98 175 144 113 132 148 161 180 171 161 172 197 209 214 206 207 202 197 246 242 155 160 189 188 203 246 244 240 234 157 166 228 211 216 225 206 188 190 182 182 184 178 178 183 186 186 188 191 194 196 200
0 0 358 354 351 349 356 360 5 9 14 25 34 48 27 24 5 321 338 329 269 208 233 248 235 231 266 281 294 315 332 353 334 318 340 347 92 124 228 160 139 172 174 154 143 147 168 197 217 215 210 201 199 188 183 232 259 254 190 214 224 218 241 255 245 233 164 169 250 227 220 234 218 190 189 181 181 187 184 185 187 188 190 192 193 197 198 198
360 359 357 353 351 349 355 2 7 11 18 32 43 62 112 59 18 293 308 321 293 267 238 270 266 235 272 283 294 317 337 328 323 320 349 360 109 164 210 191 176 182 173 149 134 158 198 219 223 209 179 178 187 177 176 205 234 250 246 225 252 241 259 276 259 241 165 183 263 230 212 238 231 197 187 182 186 195 193 189 188 187 189 193 196 198 196 192
359 359 356 352 351 350 355 6 10 9 16 30 44 65 85 28 9 304 290 324 297 304 265 296 307 266 308 314 320 349 345 302 309 322 343 359 352 217 193 196 193 183 173 176 176 175 198 232 221 187 152 179 191 179 176 190 214 229 231 224 238 231 208 256 266 312 194 210 238 212 211 247 238 201 195 194 193 197 198 196 192 188 190 194 196 194 189 189
358 358 356 352 349 352 358 10 11 7 8 13 36 53 26 357 359 333 147 57 306 305 256 249 238 260 324 324 325 335 317 234 239 316 334 358 339 315 241 199 194 203 195 188 196 198 222 261 199 165 171 191 196 194 183 186 211 219 222 223 222 215 209 239 292 342 330 282 238 174 257 283 228 192 208 207 201 202 201 199 199 198 198 199 197 194 191 190
357 357 356 352 348 352 1 15 9 359 353 0 27 4 342 342 345 254 142 61 326 294 270 297 25 3 332 326 326 324 273 241 231 277 314 341 322 305 279 224 195 214 205 183 198 217 241 260 153 162 186 196 203 207 195 189 207 227 225 219 208 200 212 251 319 352 359 313 280 166 231 282 258 208 209 200 199 207 203 197 203 205 202 199 195 197 198 196
356 356 355 352 347 352 4 27 358 352 349 352 346 335 328 336 335 225 121 54 330 297 320 344 2 350 343 339 331 330 220 291 284 281 322 339 314 229 239 289 242 222 197 174 205 221 227 224 164 175 188 188 203 216 201 186 199 237 218 199 193 180 180 189 247 288 230 256 271 159 192 263 302 252 217 193 194 204 200 200 207 206 200 197 197 198 198 198
356 356 354 351 348 355 10 1 346 355 1 326 331 332 331 336 329 186 104 34 337 343 356 334 334 344 346 335 331 349 130 310 312 310 340 338 322 183 198 280 276 237 168 158 230 199 186 204 188 189 191 184 200 213 197 181 197 232 172 152 173 179 182 185 185 219 233 267 273 192 159 236 285 264 229 193 196 206 201 204 209 205 201 200 202 201 197 198
356 357 353 353 360 7 14 0 352 357 337 328 332 336 336 337 162 149 74 42 317 11 113 320 324 330 334 329 347 12 262 320 334 318 325 324 325 133 202 236 226 269 237 188 228 183 170 199 193 186 196 196 203 205 189 182 204 225 149 147 169 185 195 191 190 228 257 311 273 230 153 227 265 268 256 194 199 213 207 207 209 202 202 204 204 203 200 200
356 357 355 2 16 15 11 6 360 344 336 338 340 338 339 12 143 97 63 148 336 30 135 317 327 329 332 338 12 9 324 356 356 301 312 319 349 45 207 207 200 261 266 232 234 220 188 196 181 183 204 206 205 203 182 187 211 210 153 153 159 175 190 186 189 212 232 254 254 238 169 214 265 260 242 207 204 216 213 211 212 204 204 205 203 203 202 200
354 357 357 13 28 15 7 2 354 346 343 345 340 337 353 119 93 57 110 200 63 18 335 2 342 332 344 358 14 358 348 359 333 317 313 322 8 20 357 83 55 250 268 267 242 242 256 202 171 190 209 189 184 198 182 190 201 165 138 146 141 165 170 176 177 152 211 246 245 231 183 192 258 237 202 215 205 198 207 216 217 210 209 209 206 204 202 198
352 356 357 17 31 20 12 354 347 348 347 345 339 340 53 102 45 103 187 247 83 353 1 12 348 344 1 18 17 350 347 346 342 350 347 342 18 24 20 22 17 356 282 281 260 248 255 232 194 193 193 170 159 191 191 194 195 172 148 147 149 269 124 159 153 141 213 242 237 217 184 189 239 238 200 217 211 191 202 215 213 209 210 209 207 205 202 199
350 353 353 5 22 22 15 346 344 347 345 344 342 355 89 33 9 145 260 349 70 335 10 352 340 356 357 14 26 352 339 349 354 357 352 349 33 42 40 32 1 339 225 263 286 247 232 231 233 228 192 176 167 184 196 197 196 191 170 152 174 218 171 192 206 191 222 244 223 185 171 199 240 247 219 215 218 208 207 213 212 208 207 207 206 204 201 199
347 348 346 352 9 10 2 350 348 346 342 346 350 32 84 81 234 220 300 338 260 301 6 315 332 4 359 8 27 358 339 0 1 351 342 345 31 72 66 44 27 49 195 291 330 267 238 229 218 227 220 183 180 188 191 189 194 196 185 172 185 185 184 205 213 228 240 252 224 160 160 219 252 249 221 209 215 220 215 217 218 212 209 207 204 200 199 199
345 344 340 357 7 359 353 350 348 343 341 354 17 53 65 94 221 262 324 270 250 344 4 288 320 5 19 20 25 16 3 1 1 348 339 355 9 56 52 33 30 29 345 354 2 279 234 231 208 211 227 192 194 199 186 166 181 198 189 185 199 189 185 192 189 215 232 252 244 170 168 206 191 222 220 200 205 215 219 225 224 221 216 208 203 197 197 200
343 344 348 17 5 354 348 346 344 342 345 14 47 60 79 184 237 308 242 253 267 1 336 332 9 33 27 2 8 33 39 340 351 342 339 17 28 23 19 23 25 22 22 28 354 357 250 260 267 295 323 292 215 204 172 153 184 199 178 193 214 187 152 165 196 200 172 238 247 203 205 221 202 258 266 201 199 204 215 225 224 227 222 201 192 193 195 201
344 349 17 20 359 350 345 343 341 338 353 71 56 62 179 200 203 175 190 238 150 107 349 353 19 46 5 341 350 358 357 2 348 337 342 19 33 44 42 28 26 27 32 38 308 359 298 281 314 331 324 302 250 231 188 172 184 181 175 201 203 142 138 201 238 208 126 220 239 199 228 257 268 274 274 184 192 202 214 223 223 226 216 184 184 192 194 199
344 345 12 9 356 346 340 340 336 326 67 91 85 209 222 200 175 167 192 339 106 107 79 30 17 39 350 340 337 340 346 8 349 341 343 357 32 55 53 42 37 29 13 3 240 249 335 289 299 311 295 298 339 320 235 188 161 147 187 194 142 117 174 203 229 235 191 229 257 217 215 211 199 249 244 167 191 214 218 221 225 227 207 183 192 194 192 196
336 331 343 1 353 344 339 340 335 268 99 79 102 220 63 47 200 105 352 347 72 77 82 122 215 68 53 350 310 324 344 8 2 355 336 340 62 77 61 25 31 25 352 339 286 244 9 300 295 272 254 307 340 331 260 202 181 184 185 165 142 162 199 189 199 216 210 235 279 281 226 206 203 226 210 185 198 214 219 220 226 224 205 194 200 195 192 194
336 331 351 356 352 345 344 357 52 95 76 67 63 264 1 328 322 346 333 9 82 86 84 177 214 69 98 134 266 303 336 19 13 13 5 1 25 74 64 17 5 17 346 327 303 263 4 277 286 298 342 329 321 253 218 211 202 198 164 155 170 193 195 188 188 187 192 225 257 267 254 234 229 208 183 193 201 201 207 215 222 221 211 202 200 195 192 191
347 19 328 349 351 346 350 36 65 45 62 84 68 305 325 303 320 329 332 54 99 114 107 189 196 97 211 249 250 294 319 263 27 51 161 352 328 40 58 35 357 360 336 311 287 271 323 115 263 306 343 339 281 218 203 216 209 201 186 175 190 204 181 194 207 174 180 196 221 248 259 256 251 203 182 196 202 196 196 203 214 218 212 207 202 195 191 190
343 63 324 345 350 347 359 53 47 15 73 58 358 333 322 324 332 324 338 59 102 135 133 163 181 166 177 316 323 290 317 281 188 160 228 313 16 39 43 35 8 349 333 305 289 297 323 125 248 296 327 308 264 278 301 332 339 242 229 196 195 194 139 181 225 224 193 197 192 212 260 261 252 208 189 197 201 200 197 197 208 216 209 207 206 198 193 193
5 63 326 347 351 350 22 69 31 14 73 8 337 296 295 318 342 325 333 33 82 109 95 135 159 154 160 282 276 261 347 276 217 193 216 228 177 276 8 21 6 339 332 303 288 290 261 200 267 271 271 262 265 274 281 278 272 256 247 226 210 190 151 187 225 214 192 220 198 195 278 268 238 202 197 203 201 202 204 198 203 215 211 206 208 202 195 195
38 307 323 356 358 4 68 69 18 28 37 332 325 294 277 307 353 341 346 21 38 40 42 91 138 86 117 195 220 244 10 274 216 193 208 257 247 268 350 357 353 341 336 314 297 308 301 202 279 288 282 274 269 268 272 276 258 231 270 291 282 260 220 206 201 173 184 210 189 223 264 263 246 207 203 214 209 196 206 207 207 216 214 206 211 209 199 198
355 278 291 7 16 37 78 56 12 22 360 341 340 335 321 333 7 359 0 17 5 338 17 13 277 105 76 343 247 199 159 92 221 211 213 240 222 75 350 323 332 340 330 311 320 343 337 265 113 6 340 292 276 257 246 9 15 356 307 306 315 321 311 272 167 137 207 207 177 190 246 251 265 284 219 237 244 223 221 223 219 226 222 206 210 213 207 204
330 266 238 4 27 45 72 74 36 31 359 352 344 343 343 341 11 6 357 20 5 330 318 1 357 82 53 0 327 252 190 156 208 244 228 222 247 288 274 273 312 316 300 299 303 302 295 265 175 113 154 204 224 200 170 336 334 321 307 305 317 342 337 302 217 179 226 217 175 184 235 239 244 45 93 251 267 252 258 263 247 244 239 219 210 213 213 209
345 33 302 342 26 46 76 75 41 32 8 5 349 343 351 338 342 358 358 21 9 348 338 8 13 43 31 11 359 316 292 203 210 264 262 257 265 242 211 226 287 296 295 305 314 305 271 251 216 197 205 221 244 262 236 266 296 296 304 307 303 307 313 305 242 209 209 192 186 216 237 247 251 225 192 205 230 232 253 267 257 248 246 233 216 213 214 211
39 37 356 342 355 30 51 42 31 21 346 353 331 333 353 341 328 344 354 5 3 351 339 38 42 48 18 360 354 302 289 257 250 267 260 261 258 246 250 246 263 280 289 317 342 337 278 268 236 215 232 250 266 278 273 272 278 278 285 292 292 295 298 278 250 240 176 163 223 237 235 254 257 245 206 214 227 227 242 247 243 241 240 236 225 214 213 212
28 63 36 297 310 17 19 341 2 358 324 320 320 339 352 348 344 353 348 344 357 356 351 19 25 20 352 339 326 282 291 300 279 265 266 273 274 288 288 243 243 267 285 340 345 333 273 279 250 222 251 261 260 265 268 264 260 260 264 271 280 289 285 260 252 252 218 215 237 226 192 231 257 293 355 312 238 241 249 248 255 259 246 239 235 221 212 209
15 44 317 283 299 335 272 292 327 343 332 334 353 357 347 339 345 355 336 318 330 2 40 355 328 335 332 323 291 257 272 288 283 272 276 284 273 280 293 268 257 258 77 350 326 304 268 271 247 241 276 275 267 261 254 243 243 253 256 261 276 285 274 253 247 249 248 253 255 224 215 231 267 349 334 306 273 253 256 276 300 287 262 243 234 225 212 203
27 11 329 313 290 266 240 262 318 350 337 327 324 347 333 325 333 337 318 295 291 315 20 339 317 320 320 312 281 246 247 253 270 269 271 288 279 254 248 250 219 161 146 311 307 289 270 267 273 298 291 281 272 250 229 225 231 241 260 297 321 320 299 249 237 256 267 266 267 255 240 246 318 340 316 316 341 4 3 352 340 312 280 251 230 218 204 193
265 275 294 297 302 307 283 241 7 328 311 287 268 342 335 319 319 319 307 276 260 289 323 319 312 312 310 300 277 263 261 257 263 263 260 267 262 240 235 224 169 162 193 197 235 282 271 291 332 15 324 288 261 220 255 263 226 214 296 351 346 345 1 27 39 19 344 275 294 301 268 271 316 323 327 350 13 27 20 359 347 338 319 278 233 211 195 186
304 283 248 242 303 320 324 268 233 295 298 281 312 331 327 297 300 311 310 282 202 247 274 295 302 304 300 291 275 266 271 272 270 269 265 259 252 244 245 238 207 187 186 185 204 250 252 271 310 24 281 277 256 277 304 287 195 199 313 7 349 342 7 28 36 22 1 331 22 328 268 290 309 317 351 17 25 28 20 3 350 342 334 309 252 212 195 191
Height
812 809 807 805 803 801 798 796 794 791 789 787 785 783 781 780 778 777 775 774 773 771 770 768 767 766 764 763 762 761 760 759 757 759 754 737 734 741 744 745 747 751 754 756 758 760 765 769 770 771 774 776 779 780 781 780 779 785 794 802 804 801 795 781 776 774 772 775 774 772 770 774 780 778 773 773 777 780 781 781 780 779 777 780 783 787 792 795
811 809 807 804 802 800 797 795 793 790 788 786 784 782 780 779 777 775 774 773 771 770 769 767 765 764 763 762 761 760 759 758 757 755 742 731 734 738 741 744 747 749 750 753 754 755 761 767 769 772 775 779 780 780 782 780 780 787 793 801 799 791 782 771 768 767 766 770 772 771 769 771 775 775 773 778 785 782 785 787 784 785 785 783 785 789 793 795
811 809 806 804 802 799 797 794 792 789 787 785 783 781 779 777 776 774 773 771 770 769 767 766 764 763 762 761 760 759 758 758 755 745 733 731 732 733 738 742 745 748 748 749 750 751 754 759 764 770 776 781 780 780 784 781 781 785 790 801 792 778 775 767 765 765 762 765 769 772 769 770 772 771 772 779 786 785 787 787 786 789 788 787 787 789 793 795
810 808 805 803 801 798 796 793 791 788 786 784 781 780 778 776 774 773 771 769 768 767 766 765 763 762 761 760 759 758 758 757 748 736 731 732 730 730 735 739 743 746 748 749 751 753 754 758 763 767 775 781 780 780 784 781 781 783 786 792 780 771 774 766 762 762 760 762 767 771 770 773 771 768 772 777 788 790 784 779 779 783 784 785 787 788 792 795
810 807 805 802 800 797 795 792 790 787 785 782 780 778 776 774 773 771 769 768 766 765 764 763 762 761 760 759 759 758 758 754 740 732 732 732 730 730 732 737 743 745 748 751 753 756 758 760 764 769 775 780 782 782 783 776 775 781 779 778 772 770 773 764 759 759 759 762 767 771 772 771 769 770 772 774 784 783 774 771 772 776 778 780 784 787 790 793
809 806 804 801 799 796 793 791 788 786 784 781 779 777 775 773 771 769 768 766 764 763 762 762 761 760 759 759 759 758 758 749 736 733 733 731 731 731 732 735 741 744 748 751 752 755 758 762 766 772 776 778 782 780 778 772 772 781 777 771 769 769 771 763 759 758 758 763 768 770 767 766 770 774 771 770 773 769 764 766 770 774 777 779 782 786 789 791
809 806 803 800 797 795 792 790 787 785 782 780 778 775 773 771 769 768 766 764 763 762 761 761 760 760 759 760 759 759 760 747 734 735 732 730 731 730 732 734 738 743 747 749 751 753 757 763 766 770 775 778 780 777 774 772 772 780 778 770 767 766 766 761 759 759 758 762 763 763 764 766 771 773 770 769 767 763 762 764 769 773 777 780 783 786 788 790
808 805 802 799 797 794 791 789 786 783 781 779 777 774 772 770 768 766 764 764 762 761 761 760 760 760 760 760 759 760 759 745 735 736 732 729 730 729 732 734 738 741 744 748 748 750 754 761 765 766 774 776 774 775 773 774 776 778 774 768 766 764 762 759 759 758 758 759 758 761 766 766 764 765 768 768 765 762 762 765 769 774 778 781 783 786 788 791
807 804 801 798 796 793 790 787 784 782 779 777 775 773 771 769 767 765 764 763 761 761 760 760 760 760 761 761 761 759 748 737 735 735 732 731 731 730 731 733 737 739 742 747 747 749 752 758 761 760 768 770 770 772 771 776 778 771 766 766 766 764 761 759 759 758 757 757 757 763 767 764 760 762 767 765 762 762 762 766 771 774 779 782 784 785 786 789
806 803 800 797 794 792 789 786 783 780 778 776 774 772 770 768 766 765 763 762 761 760 759 760 760 760 761 760 763 759 740 732 735 733 733 734 733 733 733 732 735 737 741 745 747 748 747 751 754 754 762 766 767 769 769 773 770 762 764 766 765 764 760 759 760 757 757 755 756 763 767 764 759 764 770 763 758 761 764 769 772 775 780 781 783 784 785 788
805 802 799 796 793 790 787 785 782 779 777 775 773 771 770 767 765 764 763 761 760 759 759 760 759 760 761 760 764 756 738 734 735 733 735 735 735 735 734 733 734 735 739 743 746 745 745 748 749 754 762 764 766 768 766 764 762 760 764 766 763 762 760 758 759 757 757 757 753 757 763 763 763 767 767 759 757 760 765 772 773 775 779 779 782 784 785 787
805 802 799 795 793 789 787 784 781 779 776 774 773 771 769 767 765 763 762 761 760 760 759 759 759 759 760 761 760 748 737 737 736 735 736 734 734 735 734 735 735 735 737 740 743 743 746 747 748 756 759 759 766 770 764 757 759 762 764 770 766 763 763 757 756 755 756 757 748 754 769 771 769 767 759 754 756 759 765 772 773 775 777 779 781 783 785 787
805 802 799 796 792 789 786 783 781 779 776 774 772 770 768 766 764 762 761 761 760 760 759 759 759 758 760 758 748 740 738 738 737 737 736 733 733 734 734 736 737 739 739 740 742 743 747 747 748 753 753 757 764 763 758 753 759 764 765 771 771 773 769 755 752 753 755 755 744 757 782 780 769 761 755 753 756 761 768 772 773 775 777 779 781 782 785 786
805 802 798 795 792 789 786 783 780 778 776 774 772 770 767 765 763 762 761 761 760 759 758 758 758 758 761 753 740 739 739 737 738 737 736 735 734 735 735 736 738 741 743 744 745 746 749 749 749 753 753 756 758 756 757 759 761 764 768 771 774 784 776 752 750 753 756 753 741 758 783 777 764 759 754 752 754 760 768 771 772 774 776 778 779 781 783 783
804 801 798 794 791 788 785 783 780 778 776 773 771 768 766 764 763 761 761 761 760 759 758 758 758 759 761 751 739 739 739 737 737 737 737 736 736 736 736 737 739 741 744 745 746 747 749 750 753 758 757 753 756 762 767 768 765 764 774 780 777 783 776 756 749 751 755 752 743 759 779 772 761 757 753 751 753 758 765 770 771 773 774 776 778 779 782 782
804 800 797 794 790 787 785 782 780 778 775 772 770 767 765 763 762 762 762 760 759 758 758 759 759 760 760 750 739 738 739 738 737 736 736 736 736 736 736 737 738 742 744 745 746 747 749 752 755 757 758 758 762 769 774 777 775 768 774 782 778 779 777 765 754 746 748 752 751 758 770 768 758 754 752 751 753 757 763 768 769 771 772 773 776 777 780 782
803 800 796 792 789 786 784 781 780 777 774 771 768 766 765 763 762 762 761 760 760 759 758 759 759 760 754 743 740 740 738 737 736 734 733 732 733 733 735 737 738 742 744 746 747 748 750 754 757 758 759 762 764 769 782 790 787 778 775 777 774 773 775 771 761 747 744 752 757 758 761 762 755 751 752 751 752 757 762 766 767 769 770 771 774 776 778 780
802 799 795 791 788 786 783 781 779 776 774 771 767 766 765 763 762 762 761 760 759 758 759 758 758 760 754 744 745 745 740 738 735 732 731 730 730 731 734 736 737 741 746 750 750 750 755 755 759 764 764 767 766 769 783 784 778 779 779 778 775 770 770 770 763 750 747 753 757 761 762 758 755 754 752 750 751 756 759 761 764 766 768 770 772 774 775 777
801 797 793 790 787 785 783 781 779 777 775 771 767 766 765 763 762 762 762 760 759 761 762 761 761 765 763 752 748 746 741 738 735 731 731 730 729 730 733 735 737 741 750 756 754 752 755 759 764 769 767 764 762 763 770 767 763 770 772 773 774 771 768 765 758 749 747 756 759 761 763 758 756 757 754 751 750 753 757 759 763 766 767 769 771 771 772 773
800 796 793 790 787 785 783 781 779 777 775 772 768 766 767 768 766 764 763 762 763 765 765 764 765 767 763 754 748 745 739 737 735 733 731 730 730 732 734 736 739 744 750 755 756 751 753 765 767 762 758 755 756 758 761 760 760 764 767 768 768 769 767 759 755 748 743 756 761 756 758 756 754 755 752 751 751 754 759 761 763 765 766 767 768 769 769 769
800 796 792 790 786 784 782 781 780 778 777 775 770 769 775 779 776 773 770 767 764 764 765 763 764 764 759 754 750 747 744 740 736 734 733 731 730 735 737 738 744 750 749 749 752 750 754 765 760 749 750 751 754 757 759 761 761 764 768 770 768 768 766 756 753 749 743 754 759 753 758 756 750 752 749 749 754 755 755 758 760 761 762 763 764 765 765 766
800 796 792 789 786 783 782 781 780 779 778 776 774 775 780 782 782 780 777 774 766 762 763 761 761 761 757 753 750 749 751 748 740 735 733 731 732 736 738 739 746 749 747 747 752 758 761 759 748 743 748 750 752 754 757 761 762 765 768 772 774 768 764 758 751 747 746 754 757 753 758 756 747 747 747 747 750 749 746 747 751 753 757 760 760 761 763 766
799 796 792 788 785 783 782 781 781 780 778 777 777 778 781 781 780 779 778 779 771 762 761 760 760 760 756 753 749 750 752 751 747 739 733 734 735 736 738 741 745 746 747 748 750 761 764 751 740 743 746 748 753 754 756 761 763 765 767 773 775 766 765 765 755 750 748 750 753 752 756 755 747 747 747 743 741 741 741 741 743 745 749 750 750 752 757 762
798 795 792 787 784 783 782 782 781 780 779 778 778 779 780 780 779 778 777 779 776 766 760 759 759 759 758 754 750 751 751 750 749 741 734 736 737 737 738 738 743 745 745 745 746 753 752 739 735 743 746 748 753 754 756 762 765 763 762 767 770 764 763 763 757 753 750 748 748 753 762 757 748 751 750 742 740 740 741 742 745 745 744 744 747 750 753 754
798 795 791 787 784 783 782 781 780 780 779 778 779 779 779 779 778 778 777 779 779 768 760 759 759 759 757 753 752 750 750 749 746 741 735 736 738 740 739 735 738 744 744 743 748 750 745 735 734 742 745 747 752 754 754 759 766 766 758 756 760 760 760 760 758 758 763 765 752 753 774 768 748 750 749 742 745 745 743 744 746 744 743 746 750 751 751 751
798 794 790 787 785 782 781 781 781 781 779 778 778 778 778 777 776 776 777 782 781 769 764 762 761 761 756 754 752 747 752 750 741 739 736 734 735 737 741 737 733 739 739 740 746 744 739 734 735 740 743 746 752 753 750 752 765 768 752 747 754 756 759 760 759 764 774 774 755 751 773 774 755 750 745 741 745 744 742 743 742 741 742 744 746 746 747 749
798 793 790 787 785 783 782 782 783 782 781 780 777 776 775 773 773 773 776 786 784 771 769 767 763 763 759 757 753 751 760 754 739 738 736 734 733 732 741 742 736 735 730 737 748 739 730 734 737 739 742 747 751 751 745 745 761 761 743 744 753 754 759 760 761 767 769 765 758 752 760 772 765 750 740 739 743 743 742 741 738 737 740 740 740 740 741 743
797 793 789 787 785 784 784 784 784 782 782 780 775 774 772 770 772 772 777 789 784 771 772 770 764 763 761 759 758 758 762 757 750 744 734 734 734 732 740 741 739 737 727 736 749 734 724 733 736 737 744 746 742 740 738 741 752 749 737 741 748 751 756 756 761 767 764 767 773 761 756 772 770 747 736 739 744 745 742 738 735 734 735 735 736 736 736 738
797 793 790 788 786 785 784 784 784 782 781 777 773 772 769 769 770 773 783 790 781 772 772 769 765 765 764 762 763 763 761 759 760 751 736 735 733 730 737 735 734 737 729 732 740 731 722 724 727 732 740 740 734 732 732 738 744 740 735 739 742 748 751 755 762 766 768 777 779 765 758 773 772 748 738 742 743 742 738 733 731 729 729 729 729 731 732 734
797 794 791 788 787 785 784 783 782 782 778 774 773 770 768 770 772 780 790 788 781 777 772 770 770 770 770 769 769 768 764 762 760 751 741 738 733 729 730 729 732 736 733 730 732 729 720 716 719 723 727 728 728 729 729 733 736 734 737 743 746 750 751 756 760 763 777 782 771 760 755 767 772 750 736 736 732 730 732 730 728 725 725 726 725 726 727 730
796 794 791 789 788 786 784 783 780 779 776 773 771 768 769 774 778 788 790 783 782 781 775 775 775 773 773 776 777 772 768 766 761 756 752 745 742 741 738 741 744 740 736 735 732 727 723 721 719 715 714 719 725 729 728 727 729 734 740 746 756 762 760 765 767 770 786 781 761 753 751 763 770 747 730 727 718 718 723 723 723 723 723 722 721 722 722 725
795 793 792 790 788 786 787 786 781 778 775 773 770 768 772 780 785 792 788 782 785 784 780 781 779 777 777 778 781 778 772 771 766 763 763 757 757 759 759 764 764 753 746 745 740 732 727 724 718 713 710 712 724 733 734 731 731 736 742 749 767 778 778 784 784 778 781 771 752 748 752 760 755 731 723 724 715 711 712 710 712 714 714 714 714 716 717 719
795 792 791 789 788 786 786 785 781 778 775 772 770 769 775 785 790 792 790 787 788 783 780 781 779 779 780 780 784 781 776 776 772 768 767 764 765 768 768 768 766 763 760 757 753 742 733 724 717 718 715 708 716 729 738 739 736 739 744 752 767 780 788 794 790 780 776 764 747 743 754 759 744 720 712 714 712 707 703 702 702 702 704 706 706 709 713 715
793 791 789 788 787 786 785 783 780 778 775 772 772 774 781 790 792 790 790 788 785 780 779 782 781 781 783 784 786 783 781 781 775 773 771 768 771 772 771 768 765 767 766 766 765 758 752 741 723 719 719 711 710 718 725 730 734 736 734 741 755 762 773 784 784 780 775 763 749 748 755 752 737 716 699 698 702 700 699 697 694 695 695 697 701 706 711 713
791 788 787 786 786 785 783 782 779 778 776 774 777 783 789 795 794 791 790 786 783 783 782 783 783 785 787 786 785 783 785 785 779 777 775 773 776 775 775 774 770 769 770 770 771 768 766 752 727 721 723 716 712 709 709 721 734 731 726 738 748 743 747 761 766 762 761 760 752 748 746 733 718 705 692 693 697 694 695 693 692 694 691 695 702 706 708 710
789 785 785 785 785 783 781 780 777 777 777 776 783 791 791 790 790 789 786 782 783 785 785 786 786 790 793 790 788 785 784 785 784 783 778 775 777 777 778 779 774 773 775 776 777 776 773 757 735 731 727 715 714 710 704 714 727 728 731 738 733 723 731 752 760 752 754 763 749 735 734 725 715 706 691 692 698 695 695 693 691 691 690 695 701 700 703 705
788 786 786 785 784 781 779 777 775 775 775 778 787 790 786 785 784 783 782 781 783 783 787 791 790 792 796 795 793 789 785 785 786 787 783 778 779 779 780 780 777 776 776 778 778 774 776 765 743 737 731 716 715 714 703 701 709 723 734 727 719 723 729 741 759 759 761 767 748 730 731 727 725 717 697 692 699 697 695 693 690 689 690 695 695 694 696 697
790 788 787 787 786 782 778 775 773 774 775 780 788 787 785 785 782 781 781 780 782 784 789 795 793 791 795 797 796 791 788 789 790 790 787 783 782 781 781 781 779 777 774 775 775 769 772 772 749 736 736 726 717 718 714 703 698 708 715 709 716 738 741 740 754 760 763 767 752 736 731 724 720 714 699 696 696 693 693 693 691 690 690 691 690 689 691 692
792 789 788 788 786 782 779 775 773 774 776 784 792 790 789 788 782 780 782 781 782 786 791 795 793 791 793 796 796 792 790 791 791 792 790 786 784 781 781 783 781 780 776 773 774 769 769 775 759 737 736 735 725 722 722 714 703 701 706 707 711 723 731 734 739 742 751 761 753 742 736 722 709 699 692 692 688 686 690 691 689 688 685 685 685 686 688 690
795 791 789 789 786 782 778 775 776 780 784 791 797 795 793 790 784 781 781 780 782 786 790 793 792 793 794 793 794 793 791 791 790 793 792 787 785 782 781 783 783 781 778 773 772 769 766 773 769 748 739 740 730 720 718 716 714 712 713 717 715 713 716 724 728 725 734 749 750 746 741 718 695 687 683 681 679 679 681 683 684 682 679 679 679 680 683 685
798 794 793 789 785 782 777 779 788 793 796 800 802 800 797 791 786 784 781 780 782 783 786 789 791 792 793 793 793 792 792 791 790 792 792 788 787 787 782 781 783 782 780 776 772 770 768 772 773 764 756 751 737 722 718 721 725 725 720 715 713 714 719 731 738 726 721 733 736 739 742 715 685 680 678 673 674 674 672 674 676 675 674 674 673 674 677 679
800 799 798 792 787 782 780 790 802 803 804 807 807 804 799 792 789 788 783 781 783 783 784 786 789 790 791 792 793 792 792 792 790 791 791 788 787 787 783 780 782 782 781 780 774 767 765 770 774 771 763 753 737 722 721 725 727 727 722 711 706 709 713 727 740 729 721 727 723 727 737 709 676 673 673 668 669 670 669 670 670 670 669 669 668 668 670 673
808 806 801 795 790 783 783 799 811 810 809 809 806 803 798 794 793 791 787 786 786 786 786 787 788 789 791 791 791 792 792 791 790 789 789 788 786 784 782 781 782 781 780 781 774 766 764 768 772 769 755 739 725 717 718 721 723 725 724 717 713 711 705 707 717 718 720 724 722 732 737 703 672 671 671 666 666 667 668 668 666 666 665 666 666 664 666 669
814 812 805 800 793 785 792 811 818 816 813 811 808 805 799 795 795 794 793 793 791 790 789 788 788 788 790 791 790 791 792 792 791 788 787 789 786 782 781 781 782 782 782 780 776 773 773 773 772 769 756 739 726 719 720 725 732 738 737 731 725 718 709 704 705 711 719 716 714 731 731 698 676 676 672 669 669 668 668 668 666 665 664 664 664 663 663 665
814 810 807 806 799 794 804 817 820 819 818 816 814 810 804 800 797 796 796 796 794 793 791 789 788 789 791 793 791 789 790 792 792 789 787 788 785 781 780 781 781 782 780 777 774 776 779 776 772 771 762 748 739 738 743 749 751 747 741 736 732 728 726 721 713 714 720 712 707 717 712 688 679 678 672 671 672 668 666 666 666 666 664 664 664 662 662 663
816 812 810 810 806 805 812 816 817 820 821 821 819 814 811 808 801 796 796 796 796 794 792 792 791 791 794 796 796 794 792 790 790 789 789 788 785 781 780 780 781 780 778 775 772 774 776 772 769 770 765 755 752 755 760 763 761 753 746 740 736 734 734 731 723 715 710 710 710 703 692 685 682 678 674 672 671 669 666 664 664 664 663 662 662 661 660 659
820 820 819 818 813 812 816 818 820 822 821 821 821 815 813 812 806 801 798 798 799 797 795 794 795 798 802 802 803 802 794 790 790 789 788 786 783 781 779 779 780 779 777 775 773 774 776 771 766 768 766 761 760 759 757 759 760 757 751 744 737 733 732 732 729 715 701 707 710 695 687 689 680 673 677 678 673 670 667 663 661 660 658 657 657 658 658 657
821 822 823 823 821 820 821 820 821 823 821 819 817 814 814 813 810 808 805 801 801 800 799 800 799 802 805 806 808 805 797 793 793 790 787 786 784 783 781 780 779 778 776 778 777 776 779 775 767 766 765 760 758 756 754 756 757 753 750 745 737 732 731 730 726 714 702 701 697 687 686 685 675 673 682 682 678 676 670 665 662 660 658 655 653 654 655 655
823 824 823 823 824 824 824 822 822 824 821 817 815 815 816 815 812 811 810 807 805 803 804 807 805 804 805 805 807 807 800 797 796 791 788 787 786 786 786 783 780 778 778 781 780 777 781 777 766 765 766 760 756 754 752 752 752 748 743 739 733 728 724 722 719 713 705 696 687 682 680 677 677 684 685 680 678 677 672 669 668 665 661 655 652 651 650 650
824 825 824 823 824 823 822 822 823 825 822 818 818 816 815 814 813 812 810 810 811 807 805 809 808 804 804 803 805 805 799 795 795 793 790 790 789 788 787 783 781 780 781 784 781 778 781 776 764 764 767 759 752 749 746 746 747 743 736 731 729 724 716 713 713 711 706 698 689 683 680 678 682 685 683 678 674 671 670 671 669 666 661 654 648 646 645 646
824 824 824 825 824 821 820 822 823 825 824 820 818 816 815 814 814 813 809 806 809 809 807 809 809 805 803 803 802 800 794 792 792 790 787 789 788 785 782 779 780 782 783 785 784 781 781 776 767 768 769 758 747 745 745 742 739 737 735 733 731 726 719 717 717 717 715 708 696 689 688 690 690 685 682 679 674 671 672 671 668 664 660 654 648 643 642 641
824 823 823 825 824 821 820 822 823 824 822 818 816 815 815 815 813 814 812 806 804 806 806 807 807 807 805 803 799 794 790 789 788 785 782 782 780 778 778 776 775 778 780 783 786 783 781 779 773 771 769 756 745 746 746 738 733 735 737 736 734 730 726 723 722 722 720 714 708 704 702 701 696 688 685 682 677 676 675 672 669 664 658 653 646 641 640 639